Location: Forest
(37.3641°N, 79.2902°W)
Time: 19:55:19
(UTC+00:00)

Explorer 11/Cluster Stage 4 - Pass Details

Date: 15 November 2024
Orbit: 464 x 1202 km, 28.8° (Epoch: 03 December)

Event Time Altitude Azimuth Distance (km) Brightness Sun altitude
Exits shadow 10:51:44 11° 241° (WSW) 1,939 8.2 -13.1°
Maximum altitude 10:55:18 25° 187° (S) 1,143 7.5 -12.5°
Drops below altitude 10° 10:58:35 10° 130° (SE) 1,730 9.5 -11.8°
Sets 11:00:55 0° 116° (ESE) 2,549 11.1 -11.4°
